Time,TemperatureF,DewpointF,PressureIn,WindDirection,WindDirectionDegrees,WindSpeedMPH,WindSpeedGustMPH,Humidity,HourlyPrecipIn,Conditions,Clouds,dailyrainin,SoftwareType,DateUTC
2013-01-20 00:04:00,-6.7,-12.7,29.96,WNW,292,10.3,12.5,75,0.00,,,0.00,WUHU21623XXSP,2013-01-20 06:04:00,
2013-01-20 00:09:00,-6.9,-12.9,29.96,NW,315,12.3,15.4,75,0.00,,,0.00,WUHU21623XXSP,2013-01-20 06:09:00,
2013-01-20 00:14:00,-6.9,-12.9,29.96,NW,304,7.5,16.8,75,0.00,,,0.00,WUHU21623XXSP,2013-01-20 06:14:00,
2013-01-20 00:19:00,-6.9,-12.9,29.96,NNW,337,7.6,17.4,75,0.00,,,0.00,WUHU21623XXSP,2013-01-20 06:19:00,
2013-01-20 00:24:00,-6.9,-12.9,29.96,NNW,337,11.6,17.4,75,0.00,,,0.00,WUHU21623XXSP,2013-01-20 06:24:00,
2013-01-20 00:29:00,-7.1,-13.0,29.97,NW,315,8.3,13.2,75,0.00,,,0.00,WUHU21623XXSP,2013-01-20 06:29:00,
2013-01-20 00:34:00,-7.1,-12.8,29.97,NW,312,9.2,13.6,76,0.00,,,0.00,WUHU21623XXSP,2013-01-20 06:34:00,
2013-01-20 00:39:00,-7.4,-13.4,29.97,NW,315,8.5,13.6,75,0.00,,,0.00,WUHU21623XXSP,2013-01-20 06:39:00,
2013-01-20 00:44:00,-7.4,-13.4,29.98,WNW,292,7.4,12.1,75,0.00,,,0.00,WUHU21623XXSP,2013-01-20 06:44:00,
2013-01-20 00:49:00,-7.4,-13.4,29.98,NW,306,7.0,12.1,75,0.00,,,0.00,WUHU21623XXSP,2013-01-20 06:49:00,
2013-01-20 00:54:00,-7.4,-13.4,29.98,NW,304,6.7,14.8,75,0.00,,,0.00,WUHU21623XXSP,2013-01-20 06:54:00,
2013-01-20 00:59:00,-7.8,-13.7,29.98,NW,305,7.3,14.8,75,0.00,,,0.00,WUHU21623XXSP,2013-01-20 06:59:00,
2013-01-20 01:04:00,-8.0,-13.9,29.98,WNW,297,7.1,12.1,75,0.00,,,0.00,WUHU21623XXSP,2013-01-20 07:04:00,
2013-01-20 01:09:00,-8.0,-13.9,29.98,NW,306,5.5,20.1,75,0.00,,,0.00,WUHU21623XXSP,2013-01-20 07:09:00,
2013-01-20 01:14:00,-8.3,-14.2,29.98,WNW,292,9.4,20.1,75,0.00,,,0.00,WUHU21623XXSP,2013-01-20 07:14:00,
2013-01-20 01:19:00,-8.3,-14.2,29.98,WNW,292,9.2,9.4,75,0.00,,,0.00,WUHU21623XXSP,2013-01-20 07:19:00,
2013-01-20 01:24:00,-8.3,-14.2,29.98,NNW,337,8.9,12.5,75,0.00,,,0.00,WUHU21623XXSP,2013-01-20 07:24:00,
2013-01-20 01:29:00,-8.5,-14.4,29.98,WNW,292,6.3,12.5,75,0.00,,,0.00,WUHU21623XXSP,2013-01-20 07:29:00,
2013-01-20 01:34:00,-8.5,-14.4,29.99,NW,315,6.7,9.2,75,0.00,,,0.00,WUHU21623XXSP,2013-01-20 07:34:00,
2013-01-20 01:39:00,-8.7,-14.6,29.99,WNW,292,5.6,10.7,75,0.00,,,0.00,WUHU21623XXSP,2013-01-20 07:39:00,
2013-01-20 01:44:00,-8.7,-14.3,29.99,West,270,8.3,10.7,76,0.00,,,0.00,WUHU21623XXSP,2013-01-20 07:44:00,
2013-01-20 01:49:00,-8.9,-14.5,29.99,WNW,292,7.2,9.8,76,0.00,,,0.00,WUHU21623XXSP,2013-01-20 07:49:00,
2013-01-20 01:54:00,-8.9,-14.5,30.00,NW,305,4.2,10.1,76,0.00,,,0.00,WUHU21623XXSP,2013-01-20 07:54:00,
2013-01-20 01:59:00,-9.2,-15.1,30.00,NW,308,4.5,10.1,75,0.00,,,0.00,WUHU21623XXSP,2013-01-20 07:59:00,
2013-01-20 02:04:00,-9.6,-15.4,30.00,WNW,292,6.5,7.6,75,0.00,,,0.00,WUHU21623XXSP,2013-01-20 08:04:00,
2013-01-20 02:09:00,-9.8,-15.3,30.00,WNW,303,6.6,9.4,76,0.00,,,0.00,WUHU21623XXSP,2013-01-20 08:09:00,
2013-01-20 02:14:00,-9.6,-15.2,30.00,NW,315,5.8,9.8,76,0.00,,,0.00,WUHU21623XXSP,2013-01-20 08:14:00,
2013-01-20 02:19:00,-9.6,-15.2,30.00,NW,309,8.8,15.0,76,0.00,,,0.00,WUHU21623XXSP,2013-01-20 08:19:00,
2013-01-20 02:24:00,-9.6,-15.2,30.00,WNW,292,9.6,15.0,76,0.00,,,0.00,WUHU21623XXSP,2013-01-20 08:24:00,
2013-01-20 02:29:00,-9.8,-15.3,30.01,WNW,299,7.2,12.8,76,0.00,,,0.00,WUHU21623XXSP,2013-01-20 08:29:00,
2013-01-20 02:34:00,-9.9,-15.5,30.01,NW,315,7.8,12.8,76,0.00,,,0.00,WUHU21623XXSP,2013-01-20 08:34:00,
2013-01-20 02:39:00,-9.9,-15.5,30.01,NW,315,9.6,11.4,76,0.00,,,0.00,WUHU21623XXSP,2013-01-20 08:39:00,
2013-01-20 02:44:00,-10.1,-16.0,30.00,NW,315,7.2,11.4,75,0.00,,,0.00,WUHU21623XXSP,2013-01-20 08:44:00,
2013-01-20 02:49:00,-10.5,-16.3,30.00,NW,311,5.8,9.6,75,0.00,,,0.00,WUHU21623XXSP,2013-01-20 08:49:00,
2013-01-20 02:54:00,-10.5,-16.1,30.00,NW,305,7.0,9.8,76,0.00,,,0.00,WUHU21623XXSP,2013-01-20 08:54:00,
2013-01-20 02:59:00,-10.5,-16.1,30.01,NW,315,10.7,10.7,76,0.00,,,0.00,WUHU21623XXSP,2013-01-20 08:59:00,
2013-01-20 03:04:00,-10.5,-16.1,30.01,NW,315,10.7,10.7,76,0.00,,,0.00,WUHU21623XXSP,2013-01-20 09:04:00,
2013-01-20 03:09:00,-10.8,-16.7,30.01,NW,315,9.6,9.6,75,0.00,,,0.00,WUHU21623XXSP,2013-01-20 09:09:00,
2013-01-20 03:14:00,-10.8,-16.4,30.01,WNW,301,5.2,9.6,76,0.00,,,0.00,WUHU21623XXSP,2013-01-20 09:14:00,
2013-01-20 03:19:00,-11.0,-16.6,30.01,WNW,284,3.1,7.6,76,0.00,,,0.00,WUHU21623XXSP,2013-01-20 09:19:00,
2013-01-20 03:24:00,-11.4,-17.0,30.01,WNW,292,6.0,9.6,76,0.00,,,0.00,WUHU21623XXSP,2013-01-20 09:24:00,
2013-01-20 03:29:00,-11.4,-17.0,30.01,NW,305,5.0,9.6,76,0.00,,,0.00,WUHU21623XXSP,2013-01-20 09:29:00,
2013-01-20 03:34:00,-11.4,-17.0,30.01,NW,315,3.8,9.6,76,0.00,,,0.00,WUHU21623XXSP,2013-01-20 09:34:00,
2013-01-20 03:39:00,-11.6,-17.1,30.01,NW,307,4.2,8.3,76,0.00,,,0.00,WUHU21623XXSP,2013-01-20 09:39:00,
2013-01-20 03:44:00,-11.6,-17.1,30.01,NW,315,4.9,8.1,76,0.00,,,0.00,WUHU21623XXSP,2013-01-20 09:44:00,
2013-01-20 03:49:00,-11.6,-17.1,30.01,NW,306,3.5,8.1,76,0.00,,,0.00,WUHU21623XXSP,2013-01-20 09:49:00,
2013-01-20 03:54:00,-11.9,-17.5,30.01,WNW,294,4.3,8.3,76,0.00,,,0.00,WUHU21623XXSP,2013-01-20 09:54:00,
2013-01-20 03:59:00,-11.9,-17.5,30.01,WNW,299,2.8,8.3,76,0.00,,,0.00,WUHU21623XXSP,2013-01-20 09:59:00,
2013-01-20 04:04:00,-12.1,-17.6,30.01,NW,305,5.3,8.3,76,0.00,,,0.00,WUHU21623XXSP,2013-01-20 10:04:00,
2013-01-20 04:09:00,-12.3,-18.1,30.01,WNW,292,4.5,8.3,75,0.00,,,0.00,WUHU21623XXSP,2013-01-20 10:09:00,
2013-01-20 04:14:00,-12.1,-17.6,30.02,WNW,290,3.1,6.3,76,0.00,,,0.00,WUHU21623XXSP,2013-01-20 10:14:00,
2013-01-20 04:19:00,-12.1,-17.9,30.02,WNW,292,3.1,6.3,75,0.00,,,0.00,WUHU21623XXSP,2013-01-20 10:19:00,
2013-01-20 04:24:00,-12.3,-18.1,30.02,WNW,292,3.4,8.3,75,0.00,,,0.00,WUHU21623XXSP,2013-01-20 10:24:00,
2013-01-20 04:29:00,-12.5,-18.3,30.02,WNW,292,2.7,8.3,75,0.00,,,0.00,WUHU21623XXSP,2013-01-20 10:29:00,
2013-01-20 04:34:00,-12.5,-18.0,30.02,WNW,286,2.0,4.3,76,0.00,,,0.00,WUHU21623XXSP,2013-01-20 10:34:00,
2013-01-20 04:39:00,-12.8,-18.3,30.03,West,270,1.8,4.0,76,0.00,,,0.00,WUHU21623XXSP,2013-01-20 10:39:00,
2013-01-20 04:44:00,-12.8,-18.3,30.03,WNW,292,3.6,4.7,76,0.00,,,0.00,WUHU21623XXSP,2013-01-20 10:44:00,
2013-01-20 04:49:00,-12.8,-18.3,30.04,WNW,288,2.1,5.1,76,0.00,,,0.00,WUHU21623XXSP,2013-01-20 10:49:00,
2013-01-20 04:54:00,-12.6,-18.2,30.04,WNW,292,4.5,6.0,76,0.00,,,0.00,WUHU21623XXSP,2013-01-20 10:54:00,
2013-01-20 04:59:00,-12.6,-18.2,30.04,WNW,292,3.8,6.0,76,0.00,,,0.00,WUHU21623XXSP,2013-01-20 10:59:00,
2013-01-20 05:04:00,-12.5,-18.0,30.04,WNW,292,4.0,5.4,76,0.00,,,0.00,WUHU21623XXSP,2013-01-20 11:04:00,
2013-01-20 05:09:00,-12.6,-18.2,30.04,WNW,292,2.7,5.4,76,0.00,,,0.00,WUHU21623XXSP,2013-01-20 11:09:00,
2013-01-20 05:14:00,-12.8,-18.3,30.05,WNW,292,0.8,4.7,76,0.00,,,0.00,WUHU21623XXSP,2013-01-20 11:14:00,
2013-01-20 05:19:00,-12.5,-18.0,30.05,WSW,247,2.0,4.0,76,0.00,,,0.00,WUHU21623XXSP,2013-01-20 11:19:00,
2013-01-20 05:24:00,-12.5,-18.0,30.04,WNW,292,4.3,4.5,76,0.00,,,0.00,WUHU21623XXSP,2013-01-20 11:24:00,
2013-01-20 05:29:00,-12.5,-18.0,30.05,WNW,302,3.8,5.8,76,0.00,,,0.00,WUHU21623XXSP,2013-01-20 11:29:00,
2013-01-20 05:34:00,-12.5,-18.0,30.06,WNW,292,4.7,6.3,76,0.00,,,0.00,WUHU21623XXSP,2013-01-20 11:34:00,
2013-01-20 05:39:00,-12.5,-18.0,30.06,NW,315,4.5,6.3,76,0.00,,,0.00,WUHU21623XXSP,2013-01-20 11:39:00,
2013-01-20 05:44:00,-12.5,-18.0,30.06,NW,307,3.2,6.7,76,0.00,,,0.00,WUHU21623XXSP,2013-01-20 11:44:00,
2013-01-20 05:49:00,-12.5,-18.0,30.07,WNW,292,4.9,6.7,76,0.00,,,0.00,WUHU21623XXSP,2013-01-20 11:49:00,
2013-01-20 05:54:00,-12.3,-17.8,30.07,WNW,295,3.9,7.4,76,0.00,,,0.00,WUHU21623XXSP,2013-01-20 11:54:00,
2013-01-20 05:59:00,-12.5,-18.0,30.06,West,270,4.7,7.4,76,0.00,,,0.00,WUHU21623XXSP,2013-01-20 11:59:00,
2013-01-20 06:04:00,-12.5,-18.0,30.07,NW,315,3.8,7.4,76,0.00,,,0.00,WUHU21623XXSP,2013-01-20 12:04:00,
2013-01-20 06:09:00,-12.6,-18.2,30.07,WNW,292,7.4,8.3,76,0.00,,,0.00,WUHU21623XXSP,2013-01-20 12:09:00,
2013-01-20 06:14:00,-12.5,-18.0,30.06,West,270,2.7,8.3,76,0.00,,,0.00,WUHU21623XXSP,2013-01-20 12:14:00,
2013-01-20 06:19:00,-12.5,-18.0,30.06,NW,315,3.4,7.4,76,0.00,,,0.00,WUHU21623XXSP,2013-01-20 12:19:00,
2013-01-20 06:24:00,-12.5,-18.0,30.07,WNW,302,4.0,7.4,76,0.00,,,0.00,WUHU21623XXSP,2013-01-20 12:24:00,
2013-01-20 06:29:00,-12.5,-18.0,30.07,WNW,292,4.3,7.6,76,0.00,,,0.00,WUHU21623XXSP,2013-01-20 12:29:00,
2013-01-20 06:34:00,-12.3,-17.8,30.07,WNW,292,2.5,7.6,76,0.00,,,0.00,WUHU21623XXSP,2013-01-20 12:34:00,
2013-01-20 06:39:00,-12.3,-17.8,30.07,NW,315,4.0,5.8,76,0.00,,,0.00,WUHU21623XXSP,2013-01-20 12:39:00,
2013-01-20 06:44:00,-12.3,-17.8,30.07,WNW,294,3.0,5.8,76,0.00,,,0.00,WUHU21623XXSP,2013-01-20 12:44:00,
2013-01-20 06:49:00,-12.3,-17.8,30.07,NW,315,3.2,6.9,76,0.00,,,0.00,WUHU21623XXSP,2013-01-20 12:49:00,
2013-01-20 06:54:00,-12.3,-17.8,30.07,WNW,292,3.1,6.9,76,0.00,,,0.00,WUHU21623XXSP,2013-01-20 12:54:00,
2013-01-20 06:59:00,-12.5,-18.0,30.07,WNW,292,5.4,5.4,76,0.00,,,0.00,WUHU21623XXSP,2013-01-20 12:59:00,
2013-01-20 07:04:00,-12.5,-18.0,30.07,WNW,301,3.8,6.3,76,0.00,,,0.00,WUHU21623XXSP,2013-01-20 13:04:00,
2013-01-20 07:09:00,-12.6,-18.2,30.07,NW,315,2.3,6.3,75,0.00,,,0.00,WUHU21623XXSP,2013-01-20 13:09:00,
2013-01-20 07:14:00,-12.6,-18.2,30.07,WNW,292,1.1,6.3,76,0.00,,,0.00,WUHU21623XXSP,2013-01-20 13:14:00,
2013-01-20 07:19:00,-12.5,-18.0,30.08,NW,315,2.9,6.7,76,0.00,,,0.00,WUHU21623XXSP,2013-01-20 13:19:00,
2013-01-20 07:24:00,-12.5,-18.0,30.07,WNW,292,2.2,6.7,76,0.00,,,0.00,WUHU21623XXSP,2013-01-20 13:24:00,
2013-01-20 07:29:00,-12.5,-18.3,30.07,NW,315,1.1,5.8,75,0.00,,,0.00,WUHU21623XXSP,2013-01-20 13:29:00,
2013-01-20 07:34:00,-12.6,-18.2,30.07,NW,315,2.0,5.8,76,0.00,,,0.00,WUHU21623XXSP,2013-01-20 13:34:00,
2013-01-20 07:39:00,-12.5,-18.0,30.07,WNW,292,0.6,5.8,76,0.00,,,0.00,WUHU21623XXSP,2013-01-20 13:39:00,
2013-01-20 07:44:00,-12.5,-18.0,30.07,WNW,292,0.9,2.7,76,0.00,,,0.00,WUHU21623XXSP,2013-01-20 13:44:00,
2013-01-20 07:49:00,-12.6,-18.4,30.07,WNW,292,2.0,4.0,75,0.00,,,0.00,WUHU21623XXSP,2013-01-20 13:49:00,
2013-01-20 07:54:00,-12.8,-18.6,30.07,WNW,292,1.4,4.5,75,0.00,,,0.00,WUHU21623XXSP,2013-01-20 13:54:00,
2013-01-20 07:59:00,-13.0,-18.5,30.07,WNW,292,2.7,4.5,76,0.00,,,0.00,WUHU21623XXSP,2013-01-20 13:59:00,
2013-01-20 08:04:00,-13.0,-18.5,30.08,WNW,292,2.5,3.6,76,0.00,,,0.00,WUHU21623XXSP,2013-01-20 14:04:00,
2013-01-20 08:09:00,-13.2,-18.9,30.08,WNW,292,1.8,3.4,75,0.00,,,0.00,WUHU21623XXSP,2013-01-20 14:09:00,
2013-01-20 08:14:00,-13.2,-18.7,30.08,West,270,1.6,4.9,76,0.00,,,0.00,WUHU21623XXSP,2013-01-20 14:14:00,
2013-01-20 08:19:00,-13.2,-18.7,30.08,West,270,2.0,4.9,76,0.00,,,0.00,WUHU21623XXSP,2013-01-20 14:19:00,
2013-01-20 08:24:00,-13.2,-18.7,30.08,NW,315,3.6,4.0,76,0.00,,,0.00,WUHU21623XXSP,2013-01-20 14:24:00,
2013-01-20 08:29:00,-13.2,-18.9,30.08,WNW,292,3.4,4.3,75,0.00,,,0.00,WUHU21623XXSP,2013-01-20 14:29:00,
2013-01-20 08:34:00,-13.2,-18.7,30.08,NNW,337,4.0,5.4,76,0.00,,,0.00,WUHU21623XXSP,2013-01-20 14:34:00,
2013-01-20 08:39:00,-13.2,-18.9,30.08,WNW,292,2.4,5.4,75,0.00,,,0.00,WUHU21623XXSP,2013-01-20 14:39:00,
2013-01-20 08:44:00,-13.5,-19.1,30.07,WNW,292,2.0,4.0,75,0.00,,,0.00,WUHU21623XXSP,2013-01-20 14:44:00,
2013-01-20 08:49:00,-13.5,-19.3,30.08,WNW,292,2.7,6.9,75,0.00,,,0.00,WUHU21623XXSP,2013-01-20 14:49:00,
2013-01-20 08:54:00,-13.5,-19.3,30.08,WNW,292,3.1,6.9,75,0.00,,,0.00,WUHU21623XXSP,2013-01-20 14:54:00,
2013-01-20 08:59:00,-13.2,-18.9,30.08,WNW,292,1.9,5.4,75,0.00,,,0.00,WUHU21623XXSP,2013-01-20 14:59:00,
2013-01-20 09:04:00,-13.2,-18.7,30.08,West,270,2.2,5.4,76,0.00,,,0.00,WUHU21623XXSP,2013-01-20 15:04:00,
2013-01-20 09:09:00,-12.8,-18.3,30.08,West,270,4.0,5.1,76,0.00,,,0.00,WUHU21623XXSP,2013-01-20 15:09:00,
2013-01-20 09:14:00,-12.6,-17.9,30.09,West,270,2.7,5.8,77,0.00,,,0.00,WUHU21623XXSP,2013-01-20 15:14:00,
2013-01-20 09:19:00,-12.5,-18.0,30.08,WNW,299,3.5,6.7,76,0.00,,,0.00,WUHU21623XXSP,2013-01-20 15:19:00,
2013-01-20 09:24:00,-12.3,-17.6,30.08,West,270,3.1,6.7,77,0.00,,,0.00,WUHU21623XXSP,2013-01-20 15:24:00,
2013-01-20 09:29:00,-12.3,-17.8,30.08,NW,315,5.6,6.5,76,0.00,,,0.00,WUHU21623XXSP,2013-01-20 15:29:00,
2013-01-20 09:34:00,-12.3,-17.8,30.09,WNW,292,2.7,6.5,76,0.00,,,0.00,WUHU21623XXSP,2013-01-20 15:34:00,
2013-01-20 09:39:00,-11.9,-17.5,30.09,West,270,2.2,5.4,76,0.00,,,0.00,WUHU21623XXSP,2013-01-20 15:39:00,
2013-01-20 09:44:00,-12.1,-17.9,30.09,WSW,247,3.6,5.4,75,0.00,,,0.00,WUHU21623XXSP,2013-01-20 15:44:00,
2013-01-20 09:49:00,-11.6,-17.1,30.09,West,270,2.0,5.4,76,0.00,,,0.00,WUHU21623XXSP,2013-01-20 15:49:00,
2013-01-20 09:54:00,-11.6,-17.4,30.09,West,270,1.3,4.0,75,0.00,,,0.00,WUHU21623XXSP,2013-01-20 15:54:00,
2013-01-20 09:59:00,-11.0,-16.6,30.09,West,270,1.0,4.0,76,0.00,,,0.00,WUHU21623XXSP,2013-01-20 15:59:00,
2013-01-20 10:04:00,-10.8,-16.7,30.09,WSW,257,1.6,3.8,75,0.00,,,0.00,WUHU21623XXSP,2013-01-20 16:04:00,
2013-01-20 10:09:00,-10.8,-16.4,30.09,West,276,1.5,6.5,76,0.00,,,0.00,WUHU21623XXSP,2013-01-20 16:09:00,
2013-01-20 10:14:00,-11.0,-16.9,30.09,WSW,250,2.5,6.5,75,0.00,,,0.00,WUHU21623XXSP,2013-01-20 16:14:00,
2013-01-20 10:19:00,-10.8,-16.4,30.09,West,271,2.6,5.6,76,0.00,,,0.00,WUHU21623XXSP,2013-01-20 16:19:00,
2013-01-20 10:24:00,-10.5,-16.1,30.09,West,270,1.8,4.9,76,0.00,,,0.00,WUHU21623XXSP,2013-01-20 16:24:00,
2013-01-20 10:29:00,-11.0,-16.9,30.10,West,264,2.9,6.5,75,0.00,,,0.00,WUHU21623XXSP,2013-01-20 16:29:00,
2013-01-20 10:34:00,-10.7,-16.2,30.10,West,270,4.0,6.5,76,0.00,,,0.00,WUHU21623XXSP,2013-01-20 16:34:00,
2013-01-20 10:39:00,-10.5,-16.3,30.09,West,270,2.9,4.5,75,0.00,,,0.00,WUHU21623XXSP,2013-01-20 16:39:00,
2013-01-20 10:44:00,-10.5,-16.3,30.09,West,270,2.0,5.4,75,0.00,,,0.00,WUHU21623XXSP,2013-01-20 16:44:00,
2013-01-20 10:49:00,-10.3,-16.1,30.09,West,270,2.0,5.4,75,0.00,,,0.00,WUHU21623XXSP,2013-01-20 16:49:00,
2013-01-20 10:54:00,-9.8,-15.6,30.09,WNW,292,2.9,5.1,75,0.00,,,0.00,WUHU21623XXSP,2013-01-20 16:54:00,
2013-01-20 10:59:00,-10.1,-16.0,30.09,WNW,292,2.9,4.7,75,0.00,,,0.00,WUHU21623XXSP,2013-01-20 16:59:00,
2013-01-20 11:04:00,-9.6,-15.4,30.09,West,270,1.6,3.4,75,0.00,,,0.00,WUHU21623XXSP,2013-01-20 17:04:00,
2013-01-20 11:09:00,-9.8,-15.6,30.09,West,270,2.5,4.3,75,0.00,,,0.00,WUHU21623XXSP,2013-01-20 17:09:00,
2013-01-20 11:18:00,-9.6,-15.4,30.09,WNW,292,0.9,4.7,75,0.00,,,0.00,WUHU21623XXSP,2013-01-20 17:18:00,
2013-01-20 11:23:00,-9.0,-14.9,30.09,West,270,1.8,3.4,75,0.00,,,0.00,WUHU21623XXSP,2013-01-20 17:23:00,
2013-01-20 11:28:00,-9.2,-15.4,30.08,WNW,292,2.3,4.9,74,0.00,,,0.00,WUHU21623XXSP,2013-01-20 17:28:00,
2013-01-20 11:33:00,-9.2,-15.4,30.09,NW,315,5.6,6.3,74,0.00,,,0.00,WUHU21623XXSP,2013-01-20 17:33:00,
2013-01-20 11:38:00,-8.7,-14.8,30.08,WNW,292,2.6,6.3,74,0.00,,,0.00,WUHU21623XXSP,2013-01-20 17:38:00,
2013-01-20 11:43:00,-8.3,-14.2,30.08,West,275,2.6,4.5,75,0.00,,,0.00,WUHU21623XXSP,2013-01-20 17:43:00,
2013-01-20 11:48:00,-8.3,-14.7,30.08,WSW,247,2.9,5.1,73,0.00,,,0.00,WUHU21623XXSP,2013-01-20 17:48:00,
2013-01-20 11:53:00,-8.3,-14.5,30.08,West,270,1.9,5.1,74,0.00,,,0.00,WUHU21623XXSP,2013-01-20 17:53:00,
2013-01-20 11:58:00,-8.0,-13.9,30.08,WNW,297,3.5,5.8,75,0.00,,,0.00,WUHU21623XXSP,2013-01-20 17:58:00,
2013-01-20 12:03:00,-8.3,-14.7,30.08,NW,315,4.9,6.3,73,0.00,,,0.00,WUHU21623XXSP,2013-01-20 18:03:00,
2013-01-20 12:08:00,-7.8,-14.2,30.07,WNW,283,2.6,6.3,73,0.00,,,0.00,WUHU21623XXSP,2013-01-20 18:08:00,
2013-01-20 12:13:00,-7.8,-13.7,30.07,WSW,247,5.4,7.4,75,0.00,,,0.00,WUHU21623XXSP,2013-01-20 18:13:00,
2013-01-20 12:18:00,-7.4,-14.1,30.07,WNW,292,6.7,7.4,72,0.00,,,0.00,WUHU21623XXSP,2013-01-20 18:18:00,
2013-01-20 12:23:00,-6.9,-13.6,30.07,WNW,292,4.9,6.7,72,0.00,,,0.00,WUHU21623XXSP,2013-01-20 18:23:00,
2013-01-20 12:28:00,-5.4,-11.2,30.06,West,279,1.3,6.0,76,0.00,,,0.00,WUHU21623XXSP,2013-01-20 18:28:00,
2013-01-20 12:33:00,-6.0,-12.8,30.06,West,270,3.4,7.2,72,0.00,,,0.00,WUHU21623XXSP,2013-01-20 18:33:00,
2013-01-20 12:38:00,-6.7,-14.3,30.06,WNW,292,6.5,7.4,69,0.00,,,0.00,WUHU21623XXSP,2013-01-20 18:38:00,
2013-01-20 12:43:00,-7.1,-14.6,30.06,WNW,292,4.7,7.4,69,0.00,,,0.00,WUHU21623XXSP,2013-01-20 18:43:00,
2013-01-20 12:48:00,-6.0,-13.1,30.06,WNW,292,2.5,5.4,71,0.00,,,0.00,WUHU21623XXSP,2013-01-20 18:48:00,
2013-01-20 12:53:00,-6.0,-14.0,30.05,NW,315,5.1,7.4,68,0.00,,,0.00,WUHU21623XXSP,2013-01-20 18:53:00,
2013-01-20 12:58:00,-5.6,-13.6,30.06,West,270,3.8,7.6,68,0.00,,,0.00,WUHU21623XXSP,2013-01-20 18:58:00,
2013-01-20 13:03:00,-5.3,-13.3,30.05,West,275,3.3,7.6,68,0.00,,,0.00,WUHU21623XXSP,2013-01-20 19:03:00,
2013-01-20 13:08:00,-5.1,-13.4,30.05,WSW,247,7.8,7.8,67,0.00,,,0.00,WUHU21623XXSP,2013-01-20 19:08:00,
2013-01-20 13:13:00,-4.9,-12.9,30.05,West,272,1.7,7.8,68,0.00,,,0.00,WUHU21623XXSP,2013-01-20 19:13:00,
2013-01-20 13:18:00,-4.7,-13.0,30.05,WSW,258,3.6,5.4,67,0.00,,,0.00,WUHU21623XXSP,2013-01-20 19:18:00,
2013-01-20 13:23:00,-4.4,-12.7,30.05,West,270,3.6,6.0,67,0.00,,,0.00,WUHU21623XXSP,2013-01-20 19:23:00,
2013-01-20 13:28:00,-4.5,-12.5,30.05,West,270,4.0,8.3,68,0.00,,,0.00,WUHU21623XXSP,2013-01-20 19:28:00,
2013-01-20 13:33:00,-4.4,-12.7,30.05,WSW,247,4.3,8.3,67,0.00,,,0.00,WUHU21623XXSP,2013-01-20 19:33:00,
2013-01-20 13:38:00,-4.5,-12.8,30.04,WSW,247,5.8,8.9,67,0.00,,,0.00,WUHU21623XXSP,2013-01-20 19:38:00,
2013-01-20 13:43:00,-4.7,-13.0,30.05,WSW,252,4.5,8.9,67,0.00,,,0.00,WUHU21623XXSP,2013-01-20 19:43:00,
2013-01-20 13:48:00,-4.7,-13.0,30.04,WSW,254,3.9,8.7,67,0.00,,,0.00,WUHU21623XXSP,2013-01-20 19:48:00,
2013-01-20 13:53:00,-4.7,-13.0,30.04,WNW,292,5.4,6.5,67,0.00,,,0.00,WUHU21623XXSP,2013-01-20 19:53:00,
2013-01-20 13:58:00,-4.4,-12.4,30.03,WNW,292,4.5,6.0,68,0.00,,,0.00,WUHU21623XXSP,2013-01-20 19:58:00,
2013-01-20 14:03:00,-3.8,-11.8,30.03,West,280,2.8,6.9,68,0.00,,,0.00,WUHU21623XXSP,2013-01-20 20:03:00,
2013-01-20 14:08:00,-3.8,-12.4,30.03,West,276,3.0,6.9,66,0.00,,,0.00,WUHU21623XXSP,2013-01-20 20:08:00,
2013-01-20 14:13:00,-3.8,-11.8,30.03,WNW,291,2.6,6.5,68,0.00,,,0.00,WUHU21623XXSP,2013-01-20 20:13:00,
2013-01-20 14:18:00,-3.8,-11.8,30.02,West,270,3.8,5.8,68,0.00,,,0.00,WUHU21623XXSP,2013-01-20 20:18:00,
2013-01-20 14:23:00,-3.5,-11.8,30.03,West,270,3.1,6.3,67,0.00,,,0.00,WUHU21623XXSP,2013-01-20 20:23:00,
2013-01-20 14:28:00,-4.2,-12.8,30.03,West,280,4.2,7.6,66,0.00,,,0.00,WUHU21623XXSP,2013-01-20 20:28:00,
2013-01-20 14:33:00,-4.4,-12.4,30.03,West,270,2.6,7.6,68,0.00,,,0.00,WUHU21623XXSP,2013-01-20 20:33:00,
2013-01-20 14:38:00,-3.8,-11.8,30.03,WNW,292,3.6,6.9,68,0.00,,,0.00,WUHU21623XXSP,2013-01-20 20:38:00,
2013-01-20 14:43:00,-4.2,-12.8,30.03,WSW,250,4.7,9.2,66,0.00,,,0.00,WUHU21623XXSP,2013-01-20 20:43:00,
2013-01-20 14:48:00,-3.8,-11.8,30.03,WSW,247,6.5,9.2,68,0.00,,,0.00,WUHU21623XXSP,2013-01-20 20:48:00,
2013-01-20 14:53:00,-3.6,-11.6,30.03,West,264,2.6,6.5,68,0.00,,,0.00,WUHU21623XXSP,2013-01-20 20:53:00,
2013-01-20 14:58:00,-3.6,-12.3,30.03,West,261,5.0,7.6,66,0.00,,,0.00,WUHU21623XXSP,2013-01-20 20:58:00,
2013-01-20 15:03:00,-3.6,-12.0,30.03,WNW,283,3.3,7.6,67,0.00,,,0.00,WUHU21623XXSP,2013-01-20 21:03:00,
2013-01-20 15:08:00,-3.6,-11.6,30.03,West,273,3.2,6.9,68,0.00,,,0.00,WUHU21623XXSP,2013-01-20 21:08:00,
2013-01-20 15:13:00,-3.6,-12.0,30.03,West,280,3.0,8.5,67,0.00,,,0.00,WUHU21623XXSP,2013-01-20 21:13:00,
2013-01-20 15:18:00,-3.6,-11.6,30.03,WNW,292,4.9,8.5,68,0.00,,,0.00,WUHU21623XXSP,2013-01-20 21:18:00,
2013-01-20 15:23:00,-3.5,-11.5,30.02,West,270,5.1,7.6,68,0.00,,,0.00,WUHU21623XXSP,2013-01-20 21:23:00,
2013-01-20 15:28:00,-3.6,-11.6,30.03,WNW,286,4.3,11.2,68,0.00,,,0.00,WUHU21623XXSP,2013-01-20 21:28:00,
2013-01-20 15:33:00,-3.8,-11.5,30.02,WNW,291,5.3,11.2,69,0.00,,,0.00,WUHU21623XXSP,2013-01-20 21:33:00,
2013-01-20 15:38:00,-3.8,-11.5,30.02,WNW,292,3.8,9.4,69,0.00,,,0.00,WUHU21623XXSP,2013-01-20 21:38:00,
2013-01-20 15:43:00,-4.2,-11.9,30.02,West,275,3.8,8.9,69,0.00,,,0.00,WUHU21623XXSP,2013-01-20 21:43:00,
2013-01-20 15:48:00,-4.2,-11.9,30.02,West,270,3.8,8.9,69,0.00,,,0.00,WUHU21623XXSP,2013-01-20 21:48:00,
2013-01-20 15:53:00,-4.2,-12.2,30.01,West,266,3.2,7.4,68,0.00,,,0.00,WUHU21623XXSP,2013-01-20 21:53:00,
2013-01-20 15:58:00,-4.2,-11.9,30.01,WNW,286,4.2,7.4,69,0.00,,,0.00,WUHU21623XXSP,2013-01-20 21:58:00,
2013-01-20 16:03:00,-4.4,-12.0,30.01,WNW,301,3.2,7.4,69,0.00,,,0.00,WUHU21623XXSP,2013-01-20 22:03:00,
2013-01-20 16:08:00,-4.4,-11.7,30.01,WNW,283,2.9,7.4,70,0.00,,,0.00,WUHU21623XXSP,2013-01-20 22:08:00,
2013-01-20 16:13:00,-4.7,-12.1,30.02,NW,315,4.9,7.4,70,0.00,,,0.00,WUHU21623XXSP,2013-01-20 22:13:00,
2013-01-20 16:18:00,-4.7,-11.8,30.01,WNW,296,4.3,7.8,71,0.00,,,0.00,WUHU21623XXSP,2013-01-20 22:18:00,
2013-01-20 16:23:00,-4.7,-11.6,30.01,WNW,292,1.8,7.8,72,0.00,,,0.00,WUHU21623XXSP,2013-01-20 22:23:00,
2013-01-20 16:28:00,-4.7,-11.6,30.01,WNW,292,2.7,4.5,72,0.00,,,0.00,WUHU21623XXSP,2013-01-20 22:28:00,
2013-01-20 16:33:00,-4.9,-11.7,30.01,West,270,3.6,5.4,72,0.00,,,0.00,WUHU21623XXSP,2013-01-20 22:33:00,
2013-01-20 16:38:00,-5.3,-12.4,30.01,WNW,282,2.2,5.4,71,0.00,,,0.00,WUHU21623XXSP,2013-01-20 22:38:00,
2013-01-20 16:43:00,-5.3,-12.4,30.01,NW,315,2.1,7.2,71,0.00,,,0.00,WUHU21623XXSP,2013-01-20 22:43:00,
2013-01-20 16:48:00,-5.6,-12.7,30.01,WNW,292,1.9,7.2,71,0.00,,,0.00,WUHU21623XXSP,2013-01-20 22:48:00,
2013-01-20 16:53:00,-5.6,-12.5,30.01,WNW,297,2.7,4.9,72,0.00,,,0.00,WUHU21623XXSP,2013-01-20 22:53:00,
2013-01-20 16:58:00,-5.8,-12.6,30.01,WNW,292,4.9,4.9,72,0.00,,,0.00,WUHU21623XXSP,2013-01-20 22:58:00,
2013-01-20 17:03:00,-6.0,-12.6,30.01,WNW,296,2.8,4.9,72,0.00,,,0.00,WUHU21623XXSP,2013-01-20 23:03:00,
2013-01-20 17:08:00,-6.5,-13.3,30.00,WNW,292,2.2,4.5,72,0.00,,,0.00,WUHU21623XXSP,2013-01-20 23:08:00,
2013-01-20 17:13:00,-6.5,-13.1,30.00,WNW,292,2.2,3.1,73,0.00,,,0.00,WUHU21623XXSP,2013-01-20 23:13:00,
2013-01-20 17:18:00,-6.7,-13.2,30.00,WNW,292,1.5,4.5,73,0.00,,,0.00,WUHU21623XXSP,2013-01-20 23:18:00,
2013-01-20 17:23:00,-7.1,-13.6,30.00,WNW,292,1.8,4.5,73,0.00,,,0.00,WUHU21623XXSP,2013-01-20 23:23:00,
2013-01-20 17:28:00,-7.1,-13.6,30.00,WNW,292,1.2,3.4,73,0.00,,,0.00,WUHU21623XXSP,2013-01-20 23:28:00,
2013-01-20 17:33:00,-7.4,-13.6,29.99,WNW,292,1.7,3.1,74,0.00,,,0.00,WUHU21623XXSP,2013-01-20 23:33:00,
2013-01-20 17:38:00,-7.4,-13.6,30.00,WNW,292,0.9,2.7,74,0.00,,,0.00,WUHU21623XXSP,2013-01-20 23:38:00,
2013-01-20 17:44:00,-7.4,-13.6,30.00,WNW,292,2.0,2.5,74,0.00,,,0.00,WUHU21623XXSP,2013-01-20 23:44:00,
2013-01-20 17:48:00,-7.4,-13.6,30.00,WNW,292,0.8,2.5,74,0.00,,,0.00,WUHU21623XXSP,2013-01-20 23:48:00,
2013-01-20 17:53:00,-7.8,-13.7,30.00,WNW,292,1.3,2.9,75,0.00,,,0.00,WUHU21623XXSP,2013-01-20 23:53:00,
2013-01-20 17:58:00,-7.8,-13.5,30.00,West,270,0.9,2.9,76,0.00,,,0.00,WUHU21623XXSP,2013-01-20 23:58:00,
2013-01-20 18:03:00,-8.0,-13.9,30.00,West,270,0.7,2.9,75,0.00,,,0.00,WUHU21623XXSP,2013-01-21 00:03:00,
2013-01-20 18:08:00,-9.0,-15.2,30.00,West,270,0.1,1.8,74,0.00,,,0.00,WUHU21623XXSP,2013-01-21 00:08:00,
2013-01-20 18:13:00,-9.2,-15.1,30.00,West,270,0.5,1.8,75,0.00,,,0.00,WUHU21623XXSP,2013-01-21 00:13:00,
2013-01-20 18:19:00,-8.9,-14.5,30.00,West,270,0.0,2.9,76,0.00,,,0.00,WUHU21623XXSP,2013-01-21 00:19:00,
2013-01-20 18:24:00,-9.2,-15.1,30.00,West,270,0.1,2.9,75,0.00,,,0.00,WUHU21623XXSP,2013-01-21 00:24:00,
2013-01-20 18:29:00,-9.0,-15.1,30.00,West,270,0.4,2.9,75,0.00,,,0.00,WUHU21623XXSP,2013-01-21 00:29:00,
2013-01-20 18:34:00,-9.0,-14.9,30.00,West,270,0.1,1.6,75,0.00,,,0.00,WUHU21623XXSP,2013-01-21 00:34:00,
2013-01-20 18:39:00,-9.0,-14.9,29.99,West,270,0.1,1.3,75,0.00,,,0.00,WUHU21623XXSP,2013-01-21 00:39:00,
2013-01-20 18:44:00,-9.2,-15.1,29.99,West,270,0.5,1.6,75,0.00,,,0.00,WUHU21623XXSP,2013-01-21 00:44:00,
2013-01-20 18:49:00,-9.6,-15.4,29.99,West,270,0.4,2.5,75,0.00,,,0.00,WUHU21623XXSP,2013-01-21 00:49:00,
2013-01-20 18:54:00,-9.6,-15.4,29.99,West,270,1.1,2.5,75,0.00,,,0.00,WUHU21623XXSP,2013-01-21 00:54:00,
2013-01-20 18:59:00,-9.4,-15.0,29.99,West,270,1.6,1.6,76,0.00,,,0.00,WUHU21623XXSP,2013-01-21 00:59:00,
2013-01-20 19:04:00,-9.4,-15.0,29.99,West,270,0.9,2.0,76,0.00,,,0.00,WUHU21623XXSP,2013-01-21 01:04:00,
2013-01-20 19:09:00,-9.6,-15.4,29.99,West,270,0.6,2.0,75,0.00,,,0.00,WUHU21623XXSP,2013-01-21 01:09:00,
2013-01-20 19:14:00,-9.9,-15.8,29.99,West,270,1.3,2.5,75,0.00,,,0.00,WUHU21623XXSP,2013-01-21 01:14:00,
2013-01-20 19:19:00,-9.6,-15.2,29.99,West,270,1.6,3.1,76,0.00,,,0.00,WUHU21623XXSP,2013-01-21 01:19:00,
2013-01-20 19:24:00,-9.6,-15.2,29.99,West,270,2.5,3.1,76,0.00,,,0.00,WUHU21623XXSP,2013-01-21 01:24:00,
2013-01-20 19:29:00,-9.8,-15.6,29.99,West,270,1.3,3.1,75,0.00,,,0.00,WUHU21623XXSP,2013-01-21 01:29:00,
2013-01-20 19:34:00,-9.8,-15.3,29.99,West,270,1.8,3.4,76,0.00,,,0.00,WUHU21623XXSP,2013-01-21 01:34:00,
2013-01-20 19:39:00,-9.8,-15.3,29.98,West,270,1.3,4.9,76,0.00,,,0.00,WUHU21623XXSP,2013-01-21 01:39:00,
2013-01-20 19:44:00,-9.4,-15.0,29.99,West,270,2.2,4.9,76,0.00,,,0.00,WUHU21623XXSP,2013-01-21 01:44:00,
2013-01-20 19:49:00,-9.0,-14.7,29.99,WSW,252,2.0,6.9,76,0.00,,,0.00,WUHU21623XXSP,2013-01-21 01:49:00,
2013-01-20 19:54:00,-8.9,-14.5,29.98,West,270,2.9,7.4,76,0.00,,,0.00,WUHU21623XXSP,2013-01-21 01:54:00,
2013-01-20 19:59:00,-8.9,-14.5,29.99,West,263,3.6,7.4,76,0.00,,,0.00,WUHU21623XXSP,2013-01-21 01:59:00,
2013-01-20 20:04:00,-8.9,-14.5,29.98,West,270,2.7,6.3,76,0.00,,,0.00,WUHU21623XXSP,2013-01-21 02:04:00,
2013-01-20 20:09:00,-9.0,-14.9,29.99,WNW,289,2.7,6.7,75,0.00,,,0.00,WUHU21623XXSP,2013-01-21 02:09:00,
2013-01-20 20:14:00,-9.2,-15.1,29.98,West,278,2.1,6.7,75,0.00,,,0.00,WUHU21623XXSP,2013-01-21 02:14:00,
2013-01-20 20:19:00,-9.2,-15.1,29.98,WNW,292,3.1,7.2,75,0.00,,,0.00,WUHU21623XXSP,2013-01-21 02:19:00,
2013-01-20 20:24:00,-9.4,-15.3,29.98,WNW,286,2.1,7.2,75,0.00,,,0.00,WUHU21623XXSP,2013-01-21 02:24:00,
2013-01-20 20:29:00,-9.6,-15.4,29.98,NW,315,3.4,5.1,75,0.00,,,0.00,WUHU21623XXSP,2013-01-21 02:29:00,
2013-01-20 20:34:00,-9.6,-15.4,29.98,WNW,292,3.4,5.1,75,0.00,,,0.00,WUHU21623XXSP,2013-01-21 02:34:00,
2013-01-20 20:39:00,-9.8,-15.6,29.97,WNW,292,3.1,5.4,75,0.00,,,0.00,WUHU21623XXSP,2013-01-21 02:39:00,
2013-01-20 20:44:00,-10.1,-15.7,29.97,West,270,1.4,5.4,76,0.00,,,0.00,WUHU21623XXSP,2013-01-21 02:44:00,
2013-01-20 20:49:00,-10.3,-16.1,29.97,WNW,292,2.6,5.1,75,0.00,,,0.00,WUHU21623XXSP,2013-01-21 02:49:00,
2013-01-20 20:54:00,-10.3,-16.1,29.97,West,270,3.6,5.6,75,0.00,,,0.00,WUHU21623XXSP,2013-01-21 02:54:00,
2013-01-20 20:59:00,-10.3,-15.9,29.97,WNW,292,4.5,5.6,76,0.00,,,0.00,WUHU21623XXSP,2013-01-21 02:59:00,
2013-01-20 21:04:00,-10.3,-15.9,29.97,WNW,292,3.4,4.9,76,0.00,,,0.00,WUHU21623XXSP,2013-01-21 03:04:00,
2013-01-20 21:09:00,-10.1,-15.7,29.97,West,270,4.0,4.9,76,0.00,,,0.00,WUHU21623XXSP,2013-01-21 03:09:00,
2013-01-20 21:14:00,-10.3,-15.9,29.97,WNW,289,3.6,6.0,76,0.00,,,0.00,WUHU21623XXSP,2013-01-21 03:14:00,
2013-01-20 21:19:00,-10.3,-15.9,29.97,NW,315,4.9,6.0,76,0.00,,,0.00,WUHU21623XXSP,2013-01-21 03:19:00,
2013-01-20 21:24:00,-10.1,-16.0,29.97,NW,315,4.9,5.8,75,0.00,,,0.00,WUHU21623XXSP,2013-01-21 03:24:00,
2013-01-20 21:29:00,-10.3,-16.1,29.97,WNW,292,4.9,7.4,75,0.00,,,0.00,WUHU21623XXSP,2013-01-21 03:29:00,
2013-01-20 21:34:00,-10.3,-16.1,29.97,WNW,282,3.5,7.4,75,0.00,,,0.00,WUHU21623XXSP,2013-01-21 03:34:00,
2013-01-20 21:39:00,-10.5,-16.3,29.97,NW,315,5.1,5.8,75,0.00,,,0.00,WUHU21623XXSP,2013-01-21 03:39:00,
2013-01-20 21:44:00,-10.7,-16.4,29.96,NNW,337,3.3,5.8,75,0.00,,,0.00,WUHU21623XXSP,2013-01-21 03:44:00,
2013-01-20 21:49:00,-10.8,-16.7,29.96,WNW,292,4.5,6.5,75,0.00,,,0.00,WUHU21623XXSP,2013-01-21 03:49:00,
2013-01-20 21:54:00,-10.7,-16.5,29.96,WNW,292,5.8,7.6,75,0.00,,,0.00,WUHU21623XXSP,2013-01-21 03:54:00,
2013-01-20 21:59:00,-10.8,-16.5,29.97,WNW,300,3.9,7.6,75,0.00,,,0.00,WUHU21623XXSP,2013-01-21 03:59:00,
2013-01-20 22:04:00,-10.8,-16.7,29.97,West,280,3.2,7.6,75,0.00,,,0.00,WUHU21623XXSP,2013-01-21 04:04:00,
2013-01-20 22:09:00,-10.8,-16.7,29.97,West,280,3.1,7.6,75,0.00,,,0.00,WUHU21623XXSP,2013-01-21 04:09:00,
2013-01-20 22:14:00,-10.7,-16.5,29.97,WSW,247,4.9,6.9,75,0.00,,,0.00,WUHU21623XXSP,2013-01-21 04:14:00,
2013-01-20 22:19:00,-10.7,-16.5,29.97,WNW,290,4.5,11.9,75,0.00,,,0.00,WUHU21623XXSP,2013-01-21 04:19:00,
2013-01-20 22:24:00,-10.7,-16.5,29.97,NW,317,5.0,15.0,75,0.00,,,0.00,WUHU21623XXSP,2013-01-21 04:24:00,
2013-01-20 22:29:00,-11.0,-16.9,29.97,WNW,292,6.0,15.0,75,0.00,,,0.00,WUHU21623XXSP,2013-01-21 04:29:00,
2013-01-20 22:34:00,-11.0,-16.9,29.97,NW,315,6.9,9.4,75,0.00,,,0.00,WUHU21623XXSP,2013-01-21 04:34:00,
2013-01-20 22:39:00,-11.0,-16.9,29.97,WNW,289,6.2,12.5,75,0.00,,,0.00,WUHU21623XXSP,2013-01-21 04:39:00,
2013-01-20 22:44:00,-11.4,-17.5,29.97,WNW,292,5.3,12.5,74,0.00,,,0.00,WUHU21623XXSP,2013-01-21 04:44:00,
2013-01-20 22:49:00,-11.4,-17.5,29.97,WNW,292,6.3,11.2,74,0.00,,,0.00,WUHU21623XXSP,2013-01-21 04:49:00,
2013-01-20 22:54:00,-11.4,-17.5,29.97,WNW,300,7.3,12.3,74,0.00,,,0.00,WUHU21623XXSP,2013-01-21 04:54:00,
2013-01-20 22:59:00,-11.6,-17.9,29.97,WNW,292,5.1,13.6,73,0.00,,,0.00,WUHU21623XXSP,2013-01-21 04:59:00,
2013-01-20 23:00:00,-11.6,-17.9,29.97,WNW,292,4.9,13.6,73,0.00,,,0.00,WUHU21623XXSP,2013-01-21 05:00:00,
2013-01-20 23:01:00,-11.6,-17.9,29.97,WNW,302,5.3,13.6,73,0.00,,,0.00,WUHU21623XXSP,2013-01-21 05:01:00,
2013-01-20 23:03:00,-11.6,-17.7,29.97,WNW,293,5.9,13.6,74,0.00,,,0.00,WUHU21623XXSP,2013-01-21 05:03:00,
2013-01-20 23:08:00,-11.6,-17.7,29.97,WNW,295,6.1,13.6,74,0.00,,,0.00,WUHU21623XXSP,2013-01-21 05:08:00,
2013-01-20 23:13:00,-11.9,-18.0,29.97,West,270,3.6,13.6,74,0.00,,,0.00,WUHU21623XXSP,2013-01-21 05:13:00,
2013-01-20 23:18:00,-11.9,-18.0,29.97,West,270,5.1,7.8,74,0.00,,,0.00,WUHU21623XXSP,2013-01-21 05:18:00,
2013-01-20 23:23:00,-12.1,-18.4,29.97,WNW,292,4.5,8.3,73,0.00,,,0.00,WUHU21623XXSP,2013-01-21 05:23:00,
2013-01-20 23:28:00,-12.5,-18.8,29.97,WNW,294,5.2,10.7,73,0.00,,,0.00,WUHU21623XXSP,2013-01-21 05:28:00,
2013-01-20 23:33:00,-12.5,-18.5,29.97,WNW,289,5.0,10.7,74,0.00,,,0.00,WUHU21623XXSP,2013-01-21 05:33:00,
2013-01-20 23:38:00,-12.5,-18.5,29.96,WNW,285,5.7,9.4,74,0.00,,,0.00,WUHU21623XXSP,2013-01-21 05:38:00,
2013-01-20 23:43:00,-12.8,-19.1,29.96,WNW,292,6.7,13.0,73,0.00,,,0.00,WUHU21623XXSP,2013-01-21 05:43:00,
2013-01-20 23:48:00,-13.0,-19.3,29.96,WNW,289,5.4,13.0,73,0.00,,,0.00,WUHU21623XXSP,2013-01-21 05:48:00,
2013-01-20 23:53:00,-13.2,-19.4,29.96,WNW,295,4.4,8.7,73,0.00,,,0.00,WUHU21623XXSP,2013-01-21 05:53:00,
2013-01-20 23:58:00,-13.2,-19.4,29.96,West,279,3.6,9.4,73,0.00,,,0.00,WUHU21623XXSP,2013-01-21 05:58:00,